Flag for Mexico Weather past 2 weeks in Querétaro, Querétaro, Mexico

Now
75 °F

Scattered clouds.


Feels Like: 78 °F
Forecast: 53 / 82 °F
Wind: 16 mph from East

Location: Queretaro - Qro.

Current Time: Aug 29, 2015 at 7:18:12 PM

Latest Report: Aug 29, 2015 at 6:50 PM


Visibility: 12 mi

Pressure: 30.22 "Hg (24.52 "Hg at 1817m altitude)

Humidity: 41%

Dew point: 50 °F

Location of QuerétaroLocation

Historic Weather in Querétaro — Graph

°F

Querétaro temperature yesterday

Maximum temperature yesterday: 73 °F (at 3:45 PM)
Minimum temperature yesterday: 52 °F (at 6:45 AM)
Average temperature yesterday: 63 °F

Past Weeks' High & Low Weather Summary

 TemperatureHumidityPressure
High82 °F (Aug 20, 3:45 PM)100% (Aug 18, 7:45 AM)30.42 "Hg (Aug 18, 7:45 AM)
Low50 °F (Aug 15, 5:45 AM)28% (Aug 15, 5:45 PM)30.17 "Hg (Aug 20, 5:45 PM)
Average64 °F73%30.32 "Hg
* Reported Aug 14 5:45 PM — Aug 29 5:45 PM, Querétaro, Weather by CustomWeather, © 2015

Note: Actual official high and low records may vary slightly from our data, if they occured in-between our weather recording intervals... More about our weather records

Advertising

Querétaro weather history for previous 24 hours

 ConditionsComfort  
Time TempWeatherWind HumidityBarometerVisibility
5:45 PM
Sat, Aug 29
77 °FScattered clouds.14 mph42%30.22 "Hg12 mi
4:45 PM77 °FScattered clouds.8 mph44%30.23 "Hg12 mi
3:50 PM79 °FPartly sunny.6 mph42%30.26 "Hg12 mi
2:45 PM75 °FPartly sunny.6 mph47%30.29 "Hg7 mi
1:45 PM72 °FScattered clouds.7 mph53%30.31 "Hg6 mi
12:45 PM72 °FPartly sunny.12 mph53%30.33 "Hg5 mi
11:45 AM68 °FPartly sunny.12 mph60%30.36 "Hg5 mi
10:45 AM66 °FPartly sunny.6 mph68%30.36 "Hg5 mi
9:45 AM61 °FPartly sunny.6 mph83%30.36 "Hg5 mi
8:45 AM57 °FPartly sunny.6 mph94%30.36 "Hg5 mi
7:45 AM54 °FPassing clouds.No wind94%30.34 "Hg4 mi
6:45 AM50 °FPassing clouds.No wind94%30.33 "Hg8 mi
5:45 AM52 °FClear.5 mph94%30.31 "Hg8 mi
4:45 AM57 °FClear.7 mph88%30.31 "Hg8 mi
3:45 AM55 °FClear.8 mph88%30.31 "Hg8 mi
2:45 AM55 °FClear.6 mph88%30.32 "Hg8 mi
1:45 AM55 °FClear.5 mph94%30.35 "Hg8 mi
12:45 AM55 °FClear.8 mph94%30.35 "Hg8 mi
10:45 PM
Fri, Aug 28
61 °FClear.7 mph77%30.34 "Hg8 mi
9:45 PM63 °FClear.7 mph68%30.31 "Hg8 mi
8:45 PM66 °FSunny.9 mph60%30.27 "Hg7 mi
7:45 PM68 °FScattered clouds.6 mph60%30.26 "Hg7 mi
Weather by CustomWeather, © 2015

See weather overviewHow to use our weather pages